Location: Unspecified
(0.0000°N, 0.0000°E)
Time: 20:53:57
(UTC+00:00)

Hubble Space Telescope - Visible Passes

Search period start: 25 May 2019 00:00
Search period end: 04 June 2019 00:00
Orbit: 537 x 540 km, 28.5° (Epoch: 24 May)

Date Brightness Start Highest point End Pass type
(mag) Time Alt. Az. Time Alt. Az. Time Alt. Az.
25 May 2.0 19:48:33 10° NW 19:51:20 35° NNW 19:51:20 35° NNW visible
26 May 1.1 19:37:55 10° NW 19:41:32 61° NNW 19:41:32 61° NNW visible
27 May 0.6 19:27:22 10° WNW 19:31:30 82° SSW 19:31:45 76° SSE visible
28 May 1.1 19:16:56 10° WNW 19:21:00 56° SSW 19:21:59 43° SSE visible
29 May 2.4 05:31:07 10° SSW 05:34:36 26° SSE 05:38:05 10° E visible
29 May 1.7 19:06:37 10° W 19:10:29 39° SSW 19:12:14 25° SSE visible
30 May 1.9 05:20:17 10° SW 05:24:06 36° SSE 05:27:55 10° E visible
30 May 2.3 18:56:26 10° W 18:59:59 28° SSW 19:02:28 16° SSE visible
31 May 1.3 05:10:08 13° SW 05:13:36 51° SSE 05:17:37 10° ENE visible
31 May 2.7 18:46:24 10° WSW 18:49:30 20° SSW 18:52:37 10° SSE visible
01 Jun 0.8 05:00:22 20° SW 05:03:05 76° SSE 05:07:12 10° ENE visible
01 Jun 3.1 18:36:37 10° WSW 18:39:03 15° SSW 18:41:28 10° S visible
02 Jun 0.7 04:50:35 29° WSW 04:52:34 75° NNW 04:56:41 10° NE visible
02 Jun 3.3 18:27:24 10° SW 18:28:36 11° SSW 18:29:47 10° S visible
03 Jun 1.2 04:40:48 36° W 04:42:03 51° NNW 04:46:04 10° NE visible
